Weather History for Lexington, NE

Change the Weather History Date:

Saturday, October 11, 2014

  Actual Average Record
Temperature  
Mean Temperature 47 °F -  
Max Temperature 63 °F 64 °F 80 °F (1999)
Min Temperature 31 °F 38 °F 28 °F (2001)
Degree Days  
Heating Degree Days 18    
Moisture  
Dew Point 35 °F    
Average Humidity 68    
Maximum Humidity 96    
Minimum Humidity 34    
Precipitation  
Precipitation 0.00 in - - ()
Sea Level Pressure  
Sea Level Pressure 30.09 in    
Wind  
Wind Speed 5 mph (SSE)    
Max Wind Speed 18 mph    
Max Gust Speed 26 mph    
Visibility 10 miles    
Events      
Averages and records for this station are not official NWS values.
T = Trace of Precipitation, MM = Missing Value Source: NWS Daily Summary

Daily Weather History Graph

Daily Weather History Graph

Search for Another Location

Airport:

Trip Planner

Search our weather history database for the weather conditions in past years. The results will help you decide how hot, cold, wet, or windy it might be!

Date:

Astronomy

Oct. 11, 2014 Rise Set
Actual Time 7:46 AM CDT 7:04 PM CDT
Civil Twilight 7:18 AM CDT 7:32 PM CDT
Nautical Twilight 6:46 AM CDT 8:04 PM CDT
Astronomical Twilight 6:15 AM CDT 8:35 PM CDT
Moon 9:32 PM CDT (10/11) 11:12 AM CDT (10/11)
Length of Visible Light 12h 13m
Length of Day
11h 18m
Waning Gibbous, 87% of the Moon is Illuminated
Oct 11
Waning Gibbous
Oct 15
Last Quarter
Oct 23
New
Oct 30
First Quarter
Nov 6
Full

Hourly Weather History & Observations

Time (CDT) Temp. Windchill Dew Point Humidity Pressure Visibility Wind Dir Wind Speed Gust Speed Precip Events Conditions
12:15 AM 36.7 °F - 33.3 °F 87% 30.21 in 10.0 mi Calm Calm - N/A   Clear
12:35 AM 36.5 °F - 33.6 °F 89% 30.21 in 10.0 mi Calm Calm - N/A   Clear
12:55 AM 36.5 °F - 33.8 °F 90% 30.21 in 10.0 mi Calm Calm - N/A   Clear
1:15 AM 36.3 °F - 33.6 °F 90% 30.20 in 7.0 mi Calm Calm - N/A   Clear
1:35 AM 35.4 °F - 32.9 °F 91% 30.20 in 10.0 mi Calm Calm - N/A   Clear
1:55 AM 36.5 °F - 33.8 °F 90% 30.19 in 10.0 mi Calm Calm - N/A   Clear
2:15 AM 35.4 °F - 33.3 °F 92% 30.19 in 10.0 mi Calm Calm - N/A   Clear
2:35 AM 34.5 °F - 32.4 °F 92% 30.19 in 10.0 mi Calm Calm - N/A   Clear
2:55 AM 34.9 °F 32.0 °F 32.9 °F 92% 30.19 in 10.0 mi SSE 3.5 mph - N/A   Clear
3:15 AM 36.3 °F - 33.8 °F 91% 30.19 in 10.0 mi Calm Calm - N/A   Clear
3:35 AM 35.8 °F - 32.4 °F 87% 30.18 in 10.0 mi Calm Calm - N/A   Clear
3:55 AM 34.2 °F - 32.0 °F 92% 30.18 in 10.0 mi Calm Calm - N/A   Clear
4:15 AM 33.4 °F - 31.8 °F 94% 30.18 in 10.0 mi Calm Calm - N/A   Clear
4:35 AM 33.8 °F - 32.0 °F 93% 30.19 in 10.0 mi Calm Calm - N/A   Clear
4:55 AM 33.3 °F - 32.0 °F 95% 30.18 in 10.0 mi Calm Calm - N/A   Clear
5:15 AM 32.9 °F - 31.8 °F 96% 30.19 in 10.0 mi Calm Calm - N/A   Clear
5:35 AM 33.4 °F - 32.0 °F 94% 30.18 in 10.0 mi Calm Calm - N/A   Clear
5:55 AM 32.4 °F - 31.1 °F 95% 30.18 in 10.0 mi Calm Calm - N/A   Clear
6:15 AM 32.5 °F - 31.3 °F 95% 30.18 in 10.0 mi Calm Calm - N/A   Clear
6:35 AM 32.2 °F - 31.1 °F 96% 30.18 in 10.0 mi Calm Calm - N/A   Clear
6:55 AM 31.8 °F - 30.4 °F 94% 30.18 in 10.0 mi Calm Calm - N/A   Clear
7:15 AM 32.0 °F - 31.1 °F 96% 30.18 in 10.0 mi Calm Calm - N/A   Clear
7:35 AM 32.0 °F - 30.7 °F 95% 30.18 in 10.0 mi Calm Calm - N/A   Clear
7:55 AM 32.0 °F 28.7 °F 31.1 °F 96% 30.18 in 10.0 mi SE 3.5 mph - N/A   Clear
8:15 AM 33.4 °F 29.1 °F 32.2 °F 95% 30.18 in 10.0 mi SSE 4.6 mph - N/A   Clear
8:35 AM 35.1 °F 31.0 °F 33.3 °F 93% 30.18 in 10.0 mi SSE 4.6 mph - N/A   Clear
8:55 AM 39.7 °F 36.5 °F 37.9 °F 93% 30.18 in 10.0 mi South 4.6 mph - N/A   Clear
9:15 AM 42.3 °F 40.5 °F 39.6 °F 90% 30.19 in 10.0 mi SSE 3.5 mph - N/A   Clear
9:35 AM 45.9 °F 42.3 °F 42.1 °F 87% 30.19 in 10.0 mi SSE 6.9 mph - N/A   Clear
9:55 AM 48.4 °F - 41.9 °F 78% 30.19 in 10.0 mi South 8.1 mph - N/A   Clear
10:15 AM 50.4 °F - 39.2 °F 66% 30.19 in 10.0 mi South 11.5 mph - N/A   Clear
10:35 AM 52.0 °F - 36.7 °F 56% 30.19 in 10.0 mi South 13.8 mph - N/A   Clear
10:55 AM 52.9 °F - 36.5 °F 54% 30.18 in 10.0 mi South 12.7 mph 19.6 mph N/A   Clear
11:15 AM 53.6 °F - 34.5 °F 48% 30.18 in 10.0 mi SSE 12.7 mph - N/A   Clear
11:35 AM 54.5 °F - 34.3 °F 47% 30.17 in 10.0 mi South 12.7 mph 18.4 mph N/A   Clear
11:55 AM 55.0 °F - 33.8 °F 45% 30.17 in 10.0 mi South 15.0 mph - N/A   Clear
12:15 PM 56.1 °F - 33.6 °F 43% 30.15 in 10.0 mi South 15.0 mph 19.6 mph N/A   Clear
12:35 PM 56.7 °F - 34.5 °F 43% 30.14 in 10.0 mi South 12.7 mph 19.6 mph N/A   Clear
12:55 PM 58.1 °F - 35.2 °F 42% 30.13 in 10.0 mi South 13.8 mph 18.4 mph N/A   Clear
1:15 PM 58.8 °F - 36.1 °F 43% 30.13 in 10.0 mi South 13.8 mph - N/A   Clear
1:35 PM 59.4 °F - 35.6 °F 41% 30.11 in 10.0 mi SSE 12.7 mph 19.6 mph N/A   Clear
1:55 PM 60.6 °F - 36.0 °F 40% 30.10 in 10.0 mi South 13.8 mph 19.6 mph N/A   Clear
2:15 PM 61.2 °F - 36.1 °F 39% 30.09 in 10.0 mi South 16.1 mph 21.9 mph N/A   Clear
2:35 PM 62.2 °F - 35.8 °F 37% 30.07 in 10.0 mi SSE 15.0 mph - N/A   Clear
2:55 PM 62.6 °F - 35.4 °F 36% 30.06 in 10.0 mi SSE 13.8 mph 20.7 mph N/A   Clear
3:15 PM 63.1 °F - 36.1 °F 37% 30.05 in 10.0 mi South 13.8 mph 20.7 mph N/A   Clear
3:35 PM 63.3 °F - 35.6 °F 36% 30.04 in 10.0 mi South 16.1 mph - N/A   Clear
3:55 PM 63.5 °F - 35.8 °F 36% 30.03 in 10.0 mi South 15.0 mph 21.9 mph N/A   Clear
4:15 PM 63.5 °F - 34.9 °F 34% 30.02 in 10.0 mi South 16.1 mph 23.0 mph N/A   Clear
4:35 PM 63.5 °F - 35.1 °F 35% 30.00 in 10.0 mi South 18.4 mph 24.2 mph N/A   Clear
4:55 PM 63.1 °F - 36.0 °F 36% 30.00 in 10.0 mi South 15.0 mph 21.9 mph N/A   Clear
5:15 PM 63.1 °F - 36.0 °F 36% 29.99 in 10.0 mi South 15.0 mph 26.5 mph N/A   Clear
5:35 PM 62.6 °F - 37.0 °F 39% 29.98 in 10.0 mi South 17.3 mph - N/A   Clear
5:55 PM 61.7 °F - 37.4 °F 41% 29.97 in 10.0 mi South 15.0 mph 23.0 mph N/A   Clear
6:15 PM 60.8 °F - 37.0 °F 41% 29.97 in 10.0 mi South 13.8 mph 19.6 mph N/A   Clear
6:35 PM 59.4 °F - 37.6 °F 44% 29.97 in 10.0 mi South 13.8 mph 18.4 mph N/A   Clear
6:55 PM 57.6 °F - 37.9 °F 48% 29.97 in 10.0 mi South 12.7 mph - N/A   Clear
7:15 PM 55.9 °F - 38.3 °F 52% 29.97 in 10.0 mi SSE 10.4 mph - N/A   Clear
7:35 PM 54.0 °F - 38.3 °F 55% 29.97 in 10.0 mi SSE 10.4 mph - N/A   Clear
7:55 PM 52.9 °F - 38.3 °F 58% 29.97 in 10.0 mi SSE 9.2 mph - N/A   Clear
8:15 PM 51.8 °F - 38.3 °F 60% 29.96 in 10.0 mi SSE 9.2 mph - N/A   Clear
8:35 PM 51.1 °F - 38.3 °F 62% 29.95 in 10.0 mi SSE 10.4 mph - N/A   Clear
8:55 PM 50.5 °F - 38.3 °F 63% 29.95 in 10.0 mi SSE 11.5 mph - N/A   Clear
9:15 PM 50.0 °F - 38.3 °F 64% 29.95 in 10.0 mi SSE 10.4 mph - N/A   Clear
9:35 PM 49.1 °F - 38.3 °F 66% 29.95 in 10.0 mi SSE 10.4 mph - N/A   Clear
9:55 PM 48.4 °F - 38.7 °F 69% 29.94 in 10.0 mi SSE 9.2 mph - N/A   Clear
10:15 PM 49.6 °F - 39.2 °F 67% 29.92 in 10.0 mi SSE 13.8 mph - N/A   Clear
10:35 PM 50.5 °F - 38.8 °F 64% 29.92 in 10.0 mi South 13.8 mph 19.6 mph N/A   Clear
10:55 PM 49.6 °F - 38.8 °F 66% 29.93 in 10.0 mi South 11.5 mph - N/A   Clear
11:15 PM 48.4 °F - 39.2 °F 71% 29.92 in 10.0 mi South 11.5 mph - N/A   Clear
11:35 PM 48.4 °F - 39.2 °F 71% 29.92 in 10.0 mi South 12.7 mph - N/A   Clear
11:55 PM 48.2 °F - 39.4 °F 72% 29.90 in 10.0 mi SSE 13.8 mph - N/A   Clear